Location: Hylo
(54.6785°N, 112.2142°W)
Time: 11:37:41
(UTC+00:00)

ISS - Visible Passes

Search period start: 20 September 2024 00:00
Search period end: 30 September 2024 00:00
Orbit: 413 x 423 km, 51.6° (Epoch: 20 September)

Date Brightness Start Highest point End Pass type
(mag) Time Alt. Az. Time Alt. Az. Time Alt. Az.
20 Sep -3.4 03:15:43 10° WSW 03:19:00 50° S 03:19:54 37° SE visible
20 Sep -0.8 04:52:26 10° W 04:52:50 12° W 04:52:50 12° W visible
21 Sep -3.3 02:27:59 10° WSW 02:31:16 50° S 02:33:52 15° ESE visible
21 Sep -2.3 04:04:36 10° W 04:06:47 30° SW 04:06:47 30° SW visible
22 Sep -3.1 03:16:47 10° W 03:20:00 43° SSW 03:20:42 37° SSE visible
23 Sep -3.2 02:28:57 10° W 02:32:12 48° S 02:34:36 16° ESE visible
23 Sep -1.7 04:05:46 10° W 04:07:31 21° SW 04:07:31 21° SW visible
24 Sep -2.6 03:17:47 10° W 03:20:47 31° SSW 03:21:24 28° S visible
25 Sep -2.8 02:29:48 10° W 02:32:57 37° SSW 02:35:16 16° SE visible
25 Sep -1.1 04:07:12 10° WSW 04:08:11 13° SW 04:08:11 13° SW visible
26 Sep -1.8 03:18:51 10° WSW 03:21:19 19° SSW 03:22:03 18° SSW visible
27 Sep -2.0 02:30:39 10° W 02:33:27 25° SSW 02:35:57 12° SSE visible
28 Sep -2.3 01:42:31 10° W 01:45:32 31° SSW 01:48:32 10° SE visible
28 Sep -0.9 03:20:59 10° SW 03:21:33 10° SW 03:22:06 10° SSW visible
29 Sep -1.1 02:31:45 10° WSW 02:33:41 15° SW 02:35:37 10° S visible
